CAPE
226 31 1242 987 9 4 0 0 0 0 0 0 0 0 0 0 0 0 57 162 30 3 1621 1552 2358 2255 1664 1597 1463 1236 1127 1024 868 459 108 9 3 0 1 271 6 113 82 265 77 7 3 11 23
52 101 589 433 3 0 0 0 0 0 0 0 0 0 0 135 316 292 177 127 0 919 1531 1322 2517 2336 2086 1523 1352 1271 1221 976 794 412 55 6 2 0 0 377 81 231 92 285 25 2 1 1 9
0 305 787 724 36 0 0 0 0 0 0 8 2 27 166 429 230 368 127 196 3 1150 1180 1360 2374 2228 2050 1876 1447 1257 1064 855 287 24 7 3 1 0 1 371 260 186 6 273 38 4 1 1 0
95 360 342 444 69 76 0 0 0 55 24 30 36 13 109 155 414 327 453 262 105 888 1299 1917 1847 1880 1882 1522 1338 1118 937 568 53 8 5 2 2 2 428 372 211 3 99 239 29 2 0 0 0
56 329 351 170 117 261 250 254 227 202 92 125 67 57 240 195 469 501 751 492 142 895 1510 1377 1638 1703 1748 1405 1245 895 512 107 16 3 5 6 5 265 468 420 261 42 329 196 8 1 0 0 0
85 410 180 69 137 395 313 383 258 233 258 246 142 199 156 210 640 793 903 635 222 1216 1318 1098 1687 1687 1618 1412 893 778 131 31 4 46 12 82 114 156 407 272 126 23 58 182 7 0 0 0 0
26 357 65 136 246 380 490 593 464 354 194 433 267 133 130 340 758 1001 1006 544 1305 1293 1219 1059 1158 1304 1526 1170 802 422 37 4 17 408 306 333 282 193 84 13 22 13 3 45 0 0 0 0 0
0 225 92 203 82 246 290 413 704 230 284 398 345 290 360 345 1131 978 930 1088 1511 1234 966 741 517 575 455 211 661 269 81 162 610 686 592 274 100 35 13 13 14 2 1 28 0 0 0 0 0
26 33 11 56 164 68 92 170 128 312 43 88 415 242 222 350 960 1087 854 1062 1019 844 688 506 296 190 94 31 92 330 383 839 589 448 621 47 10 13 1 0 3 0 0 1 0 0 0 0 0
0 47 4 69 130 59 22 39 83 123 237 180 204 381 351 443 1105 1059 866 768 962 788 455 346 202 90 21 9 49 97 417 519 266 76 0 2 0 0 0 0 0 0 0 0 0 0 0 0 0
0 0 0 2 2 0 0 0 0 0 0 3 33 417 556 545 1022 996 850 685 662 578 596 469 231 72 36 56 349 594 259 108 20 0 0 0 0 0 0 0 0 0 0 0 0 0 0 0 0
0 0 0 0 0 0 0 0 0 0 0 0 0 179 708 651 869 880 787 613 612 748 681 550 216 123 147 572 628 303 319 119 50 0 0 0 0 0 0 0 0 0 0 0 0 0 0 0 0
0 0 0 0 0 0 0 0 0 0 0 0 0 116 742 842 820 988 797 665 590 588 642 476 156 180 348 628 479 522 249 268 92 0 0 0 0 0 0 0 0 0 0 0 0 0 0 0 0
0 0 0 0 0 0 0 0 0 0 0 0 0 0 119 848 996 907 810 830 702 519 514 382 177 196 425 442 476 433 514 261 56 0 0 0 0 0 0 0 0 0 0 0 0 0 0 0 0
0 0 0 0 0 0 0 0 0 0 0 0 0 0 494 524 942 1056 1059 866 614 536 497 332 176 215 474 580 599 349 489 237 0 0 0 0 0 0 0 0 0 0 0 0 0 0 0 0 0
0 0 0 0 0 0 0 0 0 0 0 0 0 0 0 668 818 1106 1169 984 739 592 509 312 202 285 641 686 559 611 509 44 0 0 0 0 0 0 0 0 0 0 0 0 0 0 0 0 0
0 0 0 0 0 0 0 0 0 0 0 0 0 0 0 0 678 887 1105 1055 800 622 515 486 268 348 725 611 503 588 363 5 0 0 0 0 0 0 0 0 0 0 0 0 0 0 0 0 0
0 0 0 0 0 0 0 0 0 0 0 0 0 0 0 0 2 818 956 1059 872 768 648 458 300 292 600 743 798 488 316 32 0 0 0 0 0 0 0 0 0 0 0 0 0 0 0 0 0
0 0 0 0 0 0 0 0 0 0 0 0 0 0 0 0 0 0 803 857 817 795 610 546 336 275 381 509 685 380 279 87 0 0 0 0 0 0 0 0 0 0 0 0 0 0 0 0 0
0 0 0 0 0 0 0 0 0 0 0 0 0 0 0 0 0 0 248 744 712 636 623 310 177 354 212 163 283 568 288 189 4 9 32 4 0 0 0 0 0 0 0 0 0 0 0 0 0
0 0 0 0 0 0 0 0 0 0 0 0 0 0 0 0 0 0 0 885 752 663 512 376 180 422 198 129 160 179 182 125 40 45 51 21 1 1 0 0 0 0 0 0 0 0 0 0 0
0 0 0 0 0 0 0 0 0 0 0 0 0 0 0 0 0 0 0 116 870 762 584 350 250 410 261 145 115 140 123 97 89 65 35 19 9 2 0 0 0 0 0 0 0 0 0 0 0
0 0 0 0 0 0 0 0 0 0 0 0 0 2 2 2 3 1 0 0 1034 728 705 594 282 233 171 136 60 20 130 146 140 107 69 13 68 3 2 0 1 0 0 0 0 0 0 0 0
0 0 0 0 0 0 0 0 0 0 0 0 55 155 142 239 420 679 311 446 757 634 613 566 297 154 135 86 64 18 45 64 58 108 62 19 4 21 11 0 1 0 0 0 0 0 0 0 0
0 0 0 0 0 0 0 0 0 0 15 62 196 148 207 469 826 945 959 893 758 662 518 420 320 205 167 128 92 155 48 53 62 1 10 1 33 15 7 0 0 0 0 0 0 0 0 0 0
0 0 0 0 0 0 0 0 0 2 37 87 72 47 124 292 702 738 911 994 932 776 572 415 295 285 220 167 140 138 43 2 0 2 0 19 45 11 13 3 3 0 0 0 0 0 0 0 0
0 0 0 0 0 0 0 0 0 2 52 69 155 170 294 314 527 832 1006 873 831 891 535 520 398 360 334 84 38 18 5 0 0 1 0 3 6 29 43 45 30 14 1 0 0 0 0 0 0
0 0 0 0 0 0 0 0 0 0 5 23 183 311 283 342 434 573 726 884 682 763 512 248 297 356 72 50 0 0 14 16 33 35 14 50 33 21 12 36 16 5 0 0 0 0 0 0 0
0 0 0 0 0 0 0 0 0 0 0 5 9 70 250 196 295 547 711 487 441 437 268 115 69 34 17 23 6 24 40 48 50 69 64 6 25 29 39 29 9 0 0 0 0 0 0 0 1
0 0 0 0 0 0 0 0 0 0 1 11 4 19 87 239 394 460 123 90 117 103 29 43 26 49 49 21 41 50 61 49 47 48 19 14 19 1 0 0 0 0 0 0 0 0 0 0 0
CIN
-179 -320 -52 -45 -4 -137 -0 -0 -0 -0 -0 -0 -0 -0 -0 -0 -0 -0 -402 -322 -321 -29 -7 -0 -0 -0 -0 -0 -0 -0 -0 -0 -0 -0 -67 -0 -0 -0 -0 -15 -0 -47 -43 -0 -97 -0 -0 -0 -0
-271 -174 -31 -84 -4 -0 -0 -0 -0 -0 -0 -0 -0 -0 -0 -112 -299 -313 -323 -336 -0 -109 -12 -4 -0 -0 -0 -0 -0 -0 -0 -0 -0 -3 -142 -0 -0 -0 -0 -2 -93 -33 -86 -3 -0 -0 -0 -0 -0
-0 -89 -26 -15 -90 -0 -0 -0 -0 -0 -0 -50 -5 -176 -187 -183 -337 -300 -371 -303 -48 -44 -22 -6 -0 -0 -0 -0 -0 -0 -0 -0 -5 -153 -0 -0 -0 -0 -0 -0 -13 -64 -5 -23 -0 -0 -0 -0 -0
-210 -45 -40 -3 -63 -203 -0 -0 -0 -98 -78 -96 -38 -76 -256 -268 -279 -307 -274 -268 -268 -66 -6 -0 -0 -0 -0 -0 -0 -0 -0 -0 -104 -0 -0 -0 -0 -0 -0 -1 -17 -0 -86 -50 -0 -0 -0 -0 -0
-195 -60 -12 -7 -50 -69 -112 -97 -65 -57 -77 -71 -115 -83 -183 -231 -238 -258 -201 -202 -241 -40 -0 -0 -0 -0 -0 -0 -0 -0 -1 -64 -174 -0 -0 -0 -0 -26 -1 -9 -29 -1 -26 -50 -0 -0 -0 -0 -0
-123 -10 -14 -73 -87 -52 -52 -70 -47 -60 -76 -88 -61 -129 -167 -315 -190 -169 -141 -158 -205 -8 -4 -5 -0 -0 -0 -0 -0 -3 -46 -146 -0 -35 -5 -44 -50 -57 -10 -36 -72 -0 -65 -75 -0 -0 -0 -0 -0
-180 -7 -57 -51 -21 -4 -12 -38 -12 -69 -107 -65 -143 -105 -261 -231 -146 -105 -83 -154 -28 -13 -8 -4 -0 -0 -0 -0 -0 -3 -139 -0 -115 -3 -10 -10 -22 -30 -89 -1 -0 -0 -0 -22 -0 -0 -0 -0 -0
-0 -26 -72 -32 -57 -25 -5 -22 -42 -42 -43 -119 -133 -63 -110 -251 -75 -82 -63 -32 -24 -23 -25 -24 -24 -5 -4 -32 -0 -6 -64 -13 -0 -0 -3 -12 -53 -22 -0 -0 -0 -0 -0 -0 -0 -0 -0 -0 -0
-225 -155 -208 -119 -38 -63 -31 -25 -53 -66 -39 -92 -96 -144 -105 -172 -83 -35 -56 -31 -63 -68 -70 -72 -72 -97 -112 -146 -105 -6 -1 -0 -1 -2 -3 -38 -0 -0 -0 -0 -0 -0 -0 -0 -0 -0 -0 -0 -0
-0 -236 -42 -144 -43 -71 -111 -68 -56 -43 -2 -16 -104 -175 -252 -168 -82 -29 -64 -91 -54 -78 -109 -112 -132 -167 -205 -178 -96 -49 -0 -0 -0 -46 -0 -1 -0 -0 -0 -0 -0 -0 -0 -0 -0 -0 -0 -0 -0
-0 -0 -0 -33 -26 -0 -0 -0 -0 -0 -0 -7 -26 -73 -152 -99 -43 -84 -101 -115 -71 -68 -78 -87 -144 -208 -198 -136 -3 -0 -1 -6 -96 -0 -0 -0 -0 -0 -0 -0 -0 -0 -0 -0 -0 -0 -0 -0 -0
-0 -0 -0 -0 -0 -0 -0 -0 -0 -0 -0 -0 -0 -103 -107 -90 -71 -117 -151 -116 -81 -55 -49 -80 -167 -185 -123 -2 -0 -7 -2 -16 -23 -0 -0 -0 -0 -0 -0 -0 -0 -0 -0 -0 -0 -0 -0 -0 -0
-0 -0 -0 -0 -0 -0 -0 -0 -0 -0 -0 -0 -0 -141 -83 -94 -104 -62 -111 -109 -101 -116 -85 -101 -217 -187 -55 -0 -0 -1 -5 -1 -7 -0 -0 -0 -0 -0 -0 -0 -0 -0 -0 -0 -0 -0 -0 -0 -0
-0 -0 -0 -0 -0 -0 -0 -0 -0 -0 -0 -0 -0 -0 -143 -99 -87 -65 -55 -88 -107 -164 -152 -133 -227 -204 -83 -24 -0 -0 -0 -1 -9 -0 -0 -0 -0 -0 -0 -0 -0 -0 -0 -0 -0 -0 -0 -0 -0
-0 -0 -0 -0 -0 -0 -0 -0 -0 -0 -0 -0 -0 -0 -91 -153 -73 -57 -88 -120 -96 -196 -133 -149 -177 -141 -65 -63 -0 -4 -0 -1 -0 -0 -0 -0 -0 -0 -0 -0 -0 -0 -0 -0 -0 -0 -0 -0 -0
-0 -0 -0 -0 -0 -0 -0 -0 -0 -0 -0 -0 -0 -0 -0 -88 -117 -80 -38 -53 -52 -123 -131 -77 -145 -105 -14 -92 -49 -0 -0 -18 -0 -0 -0 -0 -0 -0 -0 -0 -0 -0 -0 -0 -0 -0 -0 -0 -0
-0 -0 -0 -0 -0 -0 -0 -0 -0 -0 -0 -0 -0 -0 -0 -0 -116 -102 -58 -49 -43 -51 -54 -69 -118 -90 -24 -51 -70 -8 -5 -48 -0 -0 -0 -0 -15 -0 -0 -0 -0 -0 -0 -0 -0 -0 -0 -0 -0
-0 -0 -0 -0 -0 -0 -0 -0 -0 -0 -0 -0 -0 -0 -0 -0 -9 -111 -123 -83 -56 -35 -36 -63 -97 -77 -22 -0 -23 -29 -12 -32 -0 -0 -0 -0 -0 -3 -0 -0 -0 -0 -0 -0 -0 -0 -0 -0 -0
-0 -0 -0 -0 -0 -0 -0 -0 -0 -0 -0 -0 -0 -0 -0 -0 -0 -0 -98 -89 -67 -27 -43 -46 -33 -86 -32 -17 -18 -19 -20 -35 -0 -0 -0 -0 -0 -0 -0 -0 -0 -0 -0 -0 -0 -0 -0 -0 -0
-0 -0 -0 -0 -0 -0 -0 -0 -0 -0 -0 -0 -0 -0 -0 -0 -0 -0 -141 -89 -84 -95 -67 -38 -158 -85 -68 -77 -65 -7 -28 -18 -49 -5 -2 -15 -0 -0 -0 -0 -0 -0 -0 -0 -0 -0 -0 -0 -0
-0 -0 -0 -0 -0 -0 -0 -0 -0 -0 -0 -0 -0 -0 -0 -0 -0 -0 -0 -95 -101 -86 -95 -72 -124 -84 -94 -159 -87 -52 -18 -13 -10 -0 -0 -1 -14 -0 -0 -0 -0 -0 -0 -0 -0 -0 -0 -0 -0
-0 -0 -0 -0 -0 -0 -0 -0 -0 -0 -0 -0 -0 -0 -0 -0 -0 -0 -0 -272 -142 -139 -86 -52 -195 -90 -100 -83 -100 -43 -23 -27 -14 -0 -0 -2 -6 -0 -0 -0 -0 -0 -0 -0 -0 -0 -0 -0 -0
-0 -0 -0 -0 -0 -0 -0 -0 -0 -0 -0 -0 -8 -82 -9 -13 -18 -16 -0 -0 -168 -160 -155 -108 -97 -148 -67 -30 -109 -78 -0 -0 -0 -0 -0 -0 -0 -0 -0 -0 -0 -0 -0 -0 -0 -0 -0 -0 -0
-0 -0 -0 -0 -0 -0 -0 -0 -0 -0 -0 -0 -14 -46 -78 -107 -136 -158 -276 -273 -175 -158 -143 -107 -79 -66 -59 -26 -11 -26 -0 -0 -0 -0 -0 -0 -0 -0 -3 -0 -1 -0 -0 -0 -0 -0 -0 -0 -0
-0 -0 -0 -0 -0 -0 -0 -0 -0 -0 -0 -0 -1 -65 -62 -61 -54 -93 -133 -152 -146 -131 -119 -104 -92 -92 -54 -25 -16 -7 -0 -0 -0 -0 -0 -0 -1 -0 -0 -0 -0 -0 -0 -0 -0 -0 -0 -0 -0
-0 -0 -0 -0 -0 -0 -0 -0 -0 -0 -0 -0 -17 -72 -110 -104 -83 -99 -90 -90 -95 -92 -103 -93 -85 -67 -34 -7 -1 -0 -5 -0 -0 -1 -0 -2 -0 -0 -0 -1 -1 -0 -0 -0 -0 -0 -0 -0 -0
-0 -0 -0 -0 -0 -0 -0 -0 -0 -0 -0 -1 -10 -62 -75 -112 -102 -77 -64 -65 -53 -26 -47 -36 -24 -6 -0 -0 -1 -4 -3 -0 -0 -2 -0 -1 -0 -3 -1 -0 -6 -1 -0 -0 -0 -0 -0 -0 -0
-0 -0 -0 -0 -0 -0 -0 -0 -0 -0 -0 -5 -2 -10 -52 -59 -100 -78 -63 -25 -30 -12 -8 -18 -6 -10 -2 -7 -3 -0 -11 -0 -0 -0 -2 -0 -10 -12 -7 -1 -26 -1 -0 -0 -0 -0 -0 -0 -0
-0 -0 -0 -0 -0 -0 -0 -0 -0 -2 -0 -1 -8 -29 -31 -52 -44 -27 -24 -41 -23 -2 -4 -15 -10 -39 -19 -15 -16 -20 -6 -3 -2 -0 -0 -3 -0 -5 -8 -0 -6 -0 -0 -0 -0 -0 -0 -0 -2
-0 -0 -0 -0 -0 -0 -0 -0 -0 -0 -3 -1 -1 -10 -16 -10 -2 -8 -31 -50 -22 -7 -0 -16 -9 -0 -0 -10 -8 -6 -3 -1 -1 -0 -0 -3 -2 -6 -0 -0 -0 -0 -0 -0 -0 -0 -0 -0 -0
Wind_Speed
31 nan 32 32 nan nan nan nan nan nan nan nan nan nan nan nan nan nan nan 20 nan nan 18 23 22 20 20 18 19 19 19 21 21 23 23 nan nan nan nan 19 nan 23 nan 27 nan nan nan nan nan
nan 31 34 36 nan nan nan nan nan nan nan nan nan nan nan 27 27 24 24 22 nan 27 23 22 24 22 21 20 20 20 21 21 23 23 nan nan nan nan nan 18 nan 24 nan 28 nan nan nan nan nan
nan 34 33 35 nan nan nan nan nan nan nan nan nan nan 29 28 27 22 22 25 nan 25 22 20 23 23 22 22 22 21 22 24 25 nan nan nan nan nan nan 21 25 27 nan 30 nan nan nan nan nan
nan 37 39 36 nan nan nan nan nan nan nan nan nan nan 33 31 27 23 24 27 29 27 23 22 22 24 24 24 24 23 24 24 nan nan nan nan nan nan 23 27 28 nan nan 32 nan nan nan nan nan
nan 40 40 35 28 24 28 26 34 34 nan 36 nan nan 35 33 29 31 29 25 27 25 23 23 25 25 26 25 25 23 24 25 nan nan nan nan nan 25 26 26 28 nan 28 29 nan nan nan nan nan
nan 42 40 nan 28 29 33 28 34 40 42 40 41 38 37 34 30 31 31 26 25 24 24 23 24 24 25 25 24 28 26 nan nan nan nan nan 27 27 27 25 23 nan nan 24 nan nan nan nan nan
nan 45 nan 40 38 37 37 36 36 40 41 44 44 36 39 36 32 32 29 28 25 23 24 25 26 26 26 25 25 26 nan nan nan 27 29 29 27 26 nan nan nan nan nan nan nan nan nan nan nan
nan 40 nan 36 nan 32 36 40 40 43 43 43 44 39 35 36 37 39 30 28 27 24 24 25 25 26 25 25 25 25 nan 26 27 31 30 31 28 nan nan nan nan nan nan nan nan nan nan nan nan
nan nan nan nan 28 nan nan 42 44 44 nan nan 43 41 39 39 35 34 29 27 26 24 25 26 25 26 nan nan nan 24 22 22 28 30 31 nan nan nan nan nan nan nan nan nan nan nan nan nan nan
nan nan nan nan 27 nan nan nan nan 44 43 46 44 51 45 43 49 34 30 23 18 22 23 24 25 nan nan nan nan nan 20 22 25 nan nan nan nan nan nan nan nan nan nan nan nan nan nan nan nan
nan nan nan nan nan nan nan nan nan nan nan nan nan 46 47 43 35 37 29 23 17 22 24 24 26 nan nan nan 27 27 25 24 nan nan nan nan nan nan nan nan nan nan nan nan nan nan nan nan nan
nan nan nan nan nan nan nan nan nan nan nan nan nan 43 45 39 32 31 18 23 27 26 23 25 27 27 29 29 27 32 27 24 nan nan nan nan nan nan nan nan nan nan nan nan nan nan nan nan nan
nan nan nan nan nan nan nan nan nan nan nan nan nan 42 38 34 31 29 30 27 28 21 23 28 25 25 26 28 34 32 29 25 nan nan nan nan nan nan nan nan nan nan nan nan nan nan nan nan nan
nan nan nan nan nan nan nan nan nan nan nan nan nan nan 35 30 28 28 28 31 28 28 24 28 24 22 28 30 31 31 28 29 nan nan nan nan nan nan nan nan nan nan nan nan nan nan nan nan nan
nan nan nan nan nan nan nan nan nan nan nan nan nan nan 40 33 30 24 26 26 24 26 23 29 19 29 33 33 35 32 34 31 nan nan nan nan nan nan nan nan nan nan nan nan nan nan nan nan nan
nan nan nan nan nan nan nan nan nan nan nan nan nan nan nan 36 27 27 26 25 26 26 22 22 25 22 35 40 43 39 31 nan nan nan nan nan nan nan nan nan nan nan nan nan nan nan nan nan nan
nan nan nan nan nan nan nan nan nan nan nan nan nan nan nan nan 34 28 26 27 29 31 26 22 18 23 27 36 38 37 32 nan nan nan nan nan nan nan nan nan nan nan nan nan nan nan nan nan nan
nan nan nan nan nan nan nan nan nan nan nan nan nan nan nan nan nan 31 25 26 31 32 34 31 26 26 32 31 48 41 36 nan nan nan nan nan nan nan nan nan nan nan nan nan nan nan nan nan nan
nan nan nan nan nan nan nan nan nan nan nan nan nan nan nan nan nan nan 28 26 31 32 31 30 28 30 31 41 43 38 33 nan nan nan nan nan nan nan nan nan nan nan nan nan nan nan nan nan nan
nan nan nan nan nan nan nan nan nan nan nan nan nan nan nan nan nan nan 32 30 29 29 30 30 28 30 32 46 43 35 34 37 nan nan nan nan nan nan nan nan nan nan nan nan nan nan nan nan nan
nan nan nan nan nan nan nan nan nan nan nan nan nan nan nan nan nan nan nan 25 31 33 32 34 39 36 35 40 40 41 40 44 nan nan nan nan nan nan nan nan nan nan nan nan nan nan nan nan nan
nan nan nan nan nan nan nan nan nan nan nan nan nan nan nan nan nan nan nan 26 24 25 31 32 31 33 40 40 36 41 30 nan nan nan nan nan nan nan nan nan nan nan nan nan nan nan nan nan nan
nan nan nan nan nan nan nan nan nan nan nan nan nan nan nan nan nan nan nan nan 22 27 25 28 33 31 33 34 nan nan 31 38 38 38 nan nan nan nan nan nan nan nan nan nan nan nan nan nan nan
nan nan nan nan nan nan nan nan nan nan nan nan nan 22 34 44 48 41 33 33 29 30 30 30 34 37 39 nan nan nan nan nan nan 48 nan nan nan nan nan nan nan nan nan nan nan nan nan nan nan
nan nan nan nan nan nan nan nan nan nan nan nan 6 17 34 42 46 41 35 34 35 32 32 35 37 41 46 42 nan 34 nan nan nan nan nan nan nan nan nan nan nan nan nan nan nan nan nan nan nan
nan nan nan nan nan nan nan nan nan nan nan nan nan nan 36 43 44 48 40 35 34 37 37 39 41 44 44 42 36 34 nan nan nan nan nan nan nan nan nan nan nan nan nan nan nan nan nan nan nan
nan nan nan nan nan nan nan nan nan nan nan nan 14 22 30 35 37 42 41 37 40 40 38 37 36 40 42 nan nan nan nan nan nan nan nan nan nan nan nan nan nan nan nan nan nan nan nan nan nan
nan nan nan nan nan nan nan nan nan nan nan nan 15 18 24 28 33 38 37 37 40 41 41 40 35 34 nan nan nan nan nan nan nan nan nan nan nan nan nan nan nan nan nan nan nan nan nan nan nan
nan nan nan nan nan nan nan nan nan nan nan nan nan nan 18 24 28 27 27 30 32 39 42 38 nan nan nan nan nan nan nan nan nan nan nan nan nan nan nan nan nan nan nan nan nan nan nan nan nan
nan nan nan nan nan nan nan nan nan nan nan nan nan nan nan 17 19 17 22 nan 33 34 nan nan nan nan nan nan nan nan nan nan nan nan nan nan nan nan nan nan nan nan nan nan nan nan nan nan nan
Wind_Direction
258 nan 260 255 nan nan nan nan nan nan nan nan nan nan nan nan nan nan nan 252 nan nan 295 300 298 300 302 306 306 311 315 316 317 312 306 nan nan nan nan 297 nan 291 nan 279 nan nan nan nan nan
nan 268 256 257 nan nan nan nan nan nan nan nan nan nan nan 239 239 235 253 250 nan 285 286 292 295 293 293 296 302 308 311 314 314 313 nan nan nan nan nan 298 nan 286 nan 288 nan nan nan nan nan
nan 266 265 261 nan nan nan nan nan nan nan nan nan nan 240 238 236 256 226 270 nan 277 279 284 288 287 287 291 297 300 307 311 308 nan nan nan nan nan nan 293 291 287 nan 288 nan nan nan nan nan
nan 268 263 265 nan nan nan nan nan nan nan nan nan nan 242 233 250 245 261 270 276 275 274 281 282 281 281 284 290 298 303 302 nan nan nan nan nan nan 293 293 292 nan nan 286 nan nan nan nan nan
nan 269 270 268 262 249 252 237 239 237 nan 236 nan nan 237 236 242 267 272 267 271 273 273 274 282 283 281 281 287 290 287 295 nan nan nan nan nan 297 291 290 291 nan 290 289 nan nan nan nan nan
nan 267 269 nan 273 252 238 238 233 242 244 238 241 242 242 237 250 266 271 271 265 268 268 270 276 275 272 276 280 283 290 nan nan nan nan nan 299 296 291 287 292 nan nan 292 nan nan nan nan nan
nan 267 nan 263 258 252 248 244 239 241 242 247 246 244 244 253 248 259 265 269 264 264 260 262 265 263 264 267 273 282 nan nan nan 310 304 295 294 289 nan nan nan nan nan nan nan nan nan nan nan
nan 265 nan 267 nan 257 244 245 241 234 240 243 246 243 239 246 255 254 256 270 264 256 257 257 254 258 261 266 273 282 nan 301 307 303 299 290 290 nan nan nan nan nan nan nan nan nan nan nan nan
nan nan nan nan 269 nan nan 239 242 236 nan nan 245 244 241 256 256 247 260 257 242 248 256 258 258 261 nan nan nan 274 286 296 298 294 289 nan nan nan nan nan nan nan nan nan nan nan nan nan nan
nan nan nan nan 268 nan nan nan nan 235 224 234 239 245 246 254 265 273 266 254 268 254 254 263 269 nan nan nan nan nan 273 277 283 nan nan nan nan nan nan nan nan nan nan nan nan nan nan nan nan
nan nan nan nan nan nan nan nan nan nan nan nan nan 244 258 254 267 270 255 272 310 269 265 273 269 nan nan nan 255 251 251 262 nan nan nan nan nan nan nan nan nan nan nan nan nan nan nan nan nan
nan nan nan nan nan nan nan nan nan nan nan nan nan 240 260 264 267 275 283 285 269 274 276 281 271 263 260 250 253 256 259 259 nan nan nan nan nan nan nan nan nan nan nan nan nan nan nan nan nan
nan nan nan nan nan nan nan nan nan nan nan nan nan 240 255 263 264 263 262 262 276 279 289 284 262 262 255 255 257 254 260 264 nan nan nan nan nan nan nan nan nan nan nan nan nan nan nan nan nan
nan nan nan nan nan nan nan nan nan nan nan nan nan nan 238 257 268 262 264 264 276 283 275 291 244 256 260 253 255 256 262 268 nan nan nan nan nan nan nan nan nan nan nan nan nan nan nan nan nan
nan nan nan nan nan nan nan nan nan nan nan nan nan nan 228 239 252 261 253 265 269 269 266 262 274 250 249 248 249 256 261 263 nan nan nan nan nan nan nan nan nan nan nan nan nan nan nan nan nan
nan nan nan nan nan nan nan nan nan nan nan nan nan nan nan 232 243 249 243 245 247 262 269 268 267 274 246 251 253 246 250 nan nan nan nan nan nan nan nan nan nan nan nan nan nan nan nan nan nan
nan nan nan nan nan nan nan nan nan nan nan nan nan nan nan nan 232 242 246 245 245 252 259 265 263 260 248 242 239 241 250 nan nan nan nan nan nan nan nan nan nan nan nan nan nan nan nan nan nan
nan nan nan nan nan nan nan nan nan nan nan nan nan nan nan nan nan 233 236 241 247 254 255 255 258 268 267 251 239 238 247 nan nan nan nan nan nan nan nan nan nan nan nan nan nan nan nan nan nan
nan nan nan nan nan nan nan nan nan nan nan nan nan nan nan nan nan nan 225 234 244 251 257 266 267 273 260 241 232 243 247 nan nan nan nan nan nan nan nan nan nan nan nan nan nan nan nan nan nan
nan nan nan nan nan nan nan nan nan nan nan nan nan nan nan nan nan nan 215 232 236 248 258 257 270 267 266 237 234 246 246 251 nan nan nan nan nan nan nan nan nan nan nan nan nan nan nan nan nan
nan nan nan nan nan nan nan nan nan nan nan nan nan nan nan nan nan nan nan 221 236 248 256 263 263 257 259 247 248 245 246 253 nan nan nan nan nan nan nan nan nan nan nan nan nan nan nan nan nan
nan nan nan nan nan nan nan nan nan nan nan nan nan nan nan nan nan nan nan 209 226 233 241 252 268 264 260 263 269 262 268 nan nan nan nan nan nan nan nan nan nan nan nan nan nan nan nan nan nan
nan nan nan nan nan nan nan nan nan nan nan nan nan nan nan nan nan nan nan nan 209 217 228 238 253 263 255 265 nan nan 245 253 248 258 nan nan nan nan nan nan nan nan nan nan nan nan nan nan nan
nan nan nan nan nan nan nan nan nan nan nan nan nan 197 196 199 202 197 197 202 208 215 216 230 241 254 255 nan nan nan nan nan nan 272 nan nan nan nan nan nan nan nan nan nan nan nan nan nan nan
nan nan nan nan nan nan nan nan nan nan nan nan 105 189 186 197 202 206 212 215 212 216 220 227 237 246 256 262 nan 274 nan nan nan nan nan nan nan nan nan nan nan nan nan nan nan nan nan nan nan
nan nan nan nan nan nan nan nan nan nan nan nan nan nan 183 189 197 197 200 215 215 217 223 230 238 245 251 257 263 266 nan nan nan nan nan nan nan nan nan nan nan nan nan nan nan nan nan nan nan
nan nan nan nan nan nan nan nan nan nan nan nan 138 167 178 184 188 194 197 204 215 220 225 234 241 248 257 nan nan nan nan nan nan nan nan nan nan nan nan nan nan nan nan nan nan nan nan nan nan
nan nan nan nan nan nan nan nan nan nan nan nan 133 143 157 169 183 191 196 211 216 221 226 231 242 257 nan nan nan nan nan nan nan nan nan nan nan nan nan nan nan nan nan nan nan nan nan nan nan
nan nan nan nan nan nan nan nan nan nan nan nan nan nan 162 168 179 189 202 214 220 227 228 236 nan nan nan nan nan nan nan nan nan nan nan nan nan nan nan nan nan nan nan nan nan nan nan nan nan
nan nan nan nan nan nan nan nan nan nan nan nan nan nan nan 176 188 196 215 nan 224 219 nan nan nan nan nan nan nan nan nan nan nan nan nan nan nan nan nan nan nan nan nan nan nan nan nan nan nan